Weather History for Tullahoma, TN

Change the Weather History Date:

Thursday, November 1, 2012

  Actual Average Record
Temperature  
Mean Temperature 42 °F -  
Max Temperature 60 °F 70 °F 69 °F (2013)
Min Temperature 24 °F 47 °F 30 °F (2014)
Degree Days  
Heating Degree Days 23    
Moisture  
Dew Point 24 °F    
Average Humidity 54    
Maximum Humidity 86    
Minimum Humidity 19    
Precipitation  
Precipitation 0.00 in - - ()
Sea Level Pressure  
Sea Level Pressure 29.99 in    
Wind  
Wind Speed 2 mph ()    
Max Wind Speed 10 mph    
Max Gust Speed -    
Visibility 10.0 miles    
Events      
Averages and records for this station are not official NWS values.
T = Trace of Precipitation, MM = Missing Value Source: Averaged Metar Reports

Daily Weather History Graph

Daily Weather History Graph

Search for Another Location

Airport:

Trip Planner

Search our weather history database for the weather conditions in past years. The results will help you decide how hot, cold, wet, or windy it might be!

Date:

Astronomy

Nov. 01, 2012 Rise Set
Actual Time 7:07 AM CDT 5:49 PM CDT
Civil Twilight 6:40 AM CDT 6:15 PM CDT
Nautical Twilight 6:10 AM CDT 6:45 PM CDT
Astronomical Twilight 5:40 AM CDT 7:15 PM CDT
Moon 7:50 PM CDT (11/1) 9:34 AM CDT (11/1)
Length of Visible Light 11h 35m
Length of Day
10h 42m
Waning Gibbous, 93% of the Moon is Illuminated
Nov 1
Waning Gibbous
Nov 6
Last Quarter
Nov 13
New
Nov 20
First Quarter
Nov 28
Full

Hourly Weather History & Observations

Time (CDT) Temp. Windchill Dew Point Humidity Pressure Visibility Wind Dir Wind Speed Gust Speed Precip Events Conditions
12:15 AM 30.2 °F - 24.8 °F 80% 29.96 in 10.0 mi Calm Calm - N/A   Clear
12:35 AM 28.4 °F - 23.0 °F 80% 29.96 in 10.0 mi Calm Calm - N/A   Clear
12:55 AM 30.2 °F - 23.0 °F 75% 29.96 in 10.0 mi Calm Calm - N/A   Clear
1:15 AM 28.4 °F - 24.8 °F 86% 29.96 in 10.0 mi Calm Calm - N/A   Clear
1:35 AM 30.2 °F - 23.0 °F 75% 29.96 in 10.0 mi Calm Calm - N/A   Clear
1:55 AM 28.4 °F - 23.0 °F 80% 29.96 in 10.0 mi Calm Calm - N/A   Clear
2:15 AM 28.4 °F - 23.0 °F 80% 29.96 in 10.0 mi Calm Calm - N/A   Clear
2:35 AM 26.6 °F 22.6 °F 21.2 °F 80% 29.97 in 10.0 mi West 3.5 mph - N/A   Clear
2:55 AM 26.6 °F - 21.2 °F 80% 29.96 in 10.0 mi Calm Calm - N/A   Clear
3:15 AM 26.6 °F - 21.2 °F 80% 29.96 in 10.0 mi Calm Calm - N/A   Clear
3:35 AM 26.6 °F 22.6 °F 21.2 °F 80% 29.97 in 10.0 mi West 3.5 mph - N/A   Clear
4:15 AM 26.6 °F - 21.2 °F 80% 29.96 in 10.0 mi Calm Calm - N/A   Clear
4:35 AM 26.6 °F - 21.2 °F 80% 29.96 in 10.0 mi Calm Calm - N/A   Clear
4:55 AM 26.6 °F - 21.2 °F 80% 29.97 in 10.0 mi Calm Calm - N/A   Clear
5:15 AM 26.6 °F - 21.2 °F 80% 29.97 in 10.0 mi Calm Calm - N/A   Clear
5:35 AM 26.6 °F - 21.2 °F 80% 29.97 in 10.0 mi Calm Calm - N/A   Clear
5:55 AM 26.6 °F - 21.2 °F 80% 29.98 in 10.0 mi Calm Calm - N/A   Clear
6:15 AM 26.6 °F - 21.2 °F 80% 29.98 in 10.0 mi Calm Calm - N/A   Clear
6:35 AM 24.8 °F - 21.2 °F 86% 29.99 in 10.0 mi Calm Calm - N/A   Clear
6:55 AM 26.6 °F - 21.2 °F 80% 29.99 in 10.0 mi Calm Calm - N/A   Clear
7:35 AM 26.6 °F - 21.2 °F 80% 30.01 in 10.0 mi Calm Calm - N/A   Clear
7:55 AM 28.4 °F - 23.0 °F 80% 30.02 in 10.0 mi Calm Calm - N/A   Clear
8:15 AM 30.2 °F - 24.8 °F 80% 30.02 in 10.0 mi Calm Calm - N/A   Clear
8:35 AM 37.4 °F - 26.6 °F 65% 30.02 in 10.0 mi Calm Calm - N/A   Clear
8:55 AM 41.0 °F - 28.4 °F 61% 30.02 in 10.0 mi Calm Calm - N/A   Clear
9:15 AM 44.6 °F 41.4 °F 26.6 °F 49% 30.03 in 10.0 mi NW 5.8 mph - N/A   Clear
9:35 AM 46.4 °F 43.5 °F 24.8 °F 43% 30.03 in 10.0 mi WNW 5.8 mph - N/A   Clear
9:55 AM 46.4 °F 42.9 °F 23.0 °F 40% 30.03 in 10.0 mi NW 6.9 mph - N/A   Clear
10:15 AM 48.2 °F - 21.2 °F 34% 30.04 in 10.0 mi NW 8.1 mph - N/A   Clear
10:35 AM 48.2 °F - 23.0 °F 37% 30.05 in 10.0 mi WNW 8.1 mph - N/A   Clear
11:15 AM 51.8 °F - 19.4 °F 28% 30.04 in 10.0 mi NW 10.4 mph - N/A   Clear
11:35 AM 53.6 °F - 19.4 °F 26% 30.03 in 10.0 mi NNW 8.1 mph - N/A   Clear
11:55 AM 53.6 °F - 19.4 °F 26% 30.03 in 10.0 mi WNW 5.8 mph - N/A   Clear
12:15 PM 55.4 °F - 19.4 °F 25% 30.02 in 10.0 mi WNW 9.2 mph - N/A   Clear
12:35 PM 55.4 °F - 19.4 °F 25% 30.02 in 10.0 mi WNW 10.4 mph - N/A   Clear
12:55 PM 55.4 °F - 17.6 °F 23% 30.01 in 10.0 mi NW 9.2 mph - N/A   Clear
1:15 PM 55.4 °F - 19.4 °F 25% 30.00 in 10.0 mi NNW 5.8 mph - N/A   Clear
1:35 PM 57.2 °F - 17.6 °F 21% 30.00 in 10.0 mi WNW 10.4 mph - N/A   Clear
1:55 PM 57.2 °F - 17.6 °F 21% 29.99 in 10.0 mi NNW 6.9 mph - N/A   Clear
2:15 PM 59.0 °F - 17.6 °F 20% 29.98 in 10.0 mi West 9.2 mph - N/A   Clear
2:35 PM 59.0 °F - 17.6 °F 20% 29.98 in 10.0 mi NW 10.4 mph - N/A   Clear
2:55 PM 60.8 °F - 17.6 °F 19% 29.98 in 10.0 mi NNW 9.2 mph - N/A   Clear
3:15 PM 60.8 °F - 19.4 °F 20% 29.97 in 10.0 mi NW 8.1 mph - N/A   Clear
3:35 PM 59.0 °F - 19.4 °F 22% 29.97 in 10.0 mi WNW 9.2 mph - N/A   Clear
3:55 PM 60.8 °F - 21.2 °F 22% 29.97 in 10.0 mi WNW 10.4 mph - N/A   Clear
4:15 PM 59.0 °F - 21.2 °F 23% 29.98 in 10.0 mi NW 8.1 mph - N/A   Clear
4:35 PM 59.0 °F - 23.0 °F 25% 29.97 in 10.0 mi WNW 8.1 mph - N/A   Clear
4:55 PM 57.2 °F - 23.0 °F 27% 29.98 in 10.0 mi WNW 9.2 mph - N/A   Clear
5:15 PM 57.2 °F - 24.8 °F 29% 29.98 in 10.0 mi WNW 6.9 mph - N/A   Clear
5:35 PM 55.4 °F - 26.6 °F 33% 29.98 in 10.0 mi West 5.8 mph - N/A   Clear
5:55 PM 51.8 °F - 28.4 °F 41% 29.98 in 10.0 mi West 4.6 mph - N/A   Clear
6:15 PM 50.0 °F - 26.6 °F 40% 29.98 in 10.0 mi WSW 5.8 mph - N/A   Clear
6:35 PM 48.2 °F - 26.6 °F 43% 29.98 in 10.0 mi West 3.5 mph - N/A   Clear
6:55 PM 44.6 °F 43.1 °F 28.4 °F 53% 29.98 in 10.0 mi WSW 3.5 mph - N/A   Clear
7:15 PM 44.6 °F - 28.4 °F 53% 29.97 in 10.0 mi Calm Calm - N/A   Clear
7:35 PM 42.8 °F - 28.4 °F 57% 29.98 in 10.0 mi Calm Calm - N/A   Clear
7:55 PM 44.6 °F - 30.2 °F 57% 29.98 in 10.0 mi Calm Calm - N/A   Mostly Cloudy
8:15 PM 44.6 °F - 32.0 °F 61% 29.98 in 10.0 mi Calm Calm - N/A   Overcast
8:35 PM 44.6 °F - 32.0 °F 61% 29.98 in 10.0 mi Calm Calm - N/A   Overcast
8:55 PM 44.6 °F - 33.8 °F 66% 29.98 in 10.0 mi Calm Calm - N/A   Overcast
9:15 PM 46.4 °F - 30.2 °F 53% 29.98 in 10.0 mi Calm Calm - N/A   Overcast
9:35 PM 46.4 °F - 33.8 °F 62% 29.98 in 10.0 mi Calm Calm - N/A   Overcast
9:55 PM 44.6 °F - 35.6 °F 71% 29.98 in 10.0 mi Calm Calm - N/A   Overcast
10:15 PM 46.4 °F - 35.6 °F 66% 29.98 in 10.0 mi Calm Calm - N/A   Overcast
10:35 PM 48.2 °F - 32.0 °F 54% 29.98 in 10.0 mi Calm Calm - N/A   Overcast
10:55 PM 50.0 °F - 32.0 °F 50% 29.97 in 10.0 mi Calm Calm - N/A   Overcast
11:15 PM 50.0 °F - 33.8 °F 54% 29.98 in 10.0 mi Calm Calm - N/A   Overcast
11:35 PM 46.4 °F - 35.6 °F 66% 29.98 in 10.0 mi Calm Calm - N/A   Mostly Cloudy
11:55 PM 48.2 °F - 33.8 °F 58% 29.98 in 10.0 mi Calm Calm - N/A   Scattered Clouds